Doha, Qatar

12:28 PM AST on February 24, 2017 (GMT +0300)
Doha International

Weather History for OTBD - September, 2011

Change the Weather History Date:

Friday, September 23, 2011

  Actual Average Record
Temperature  
Mean Temperature 94 °F -  
Max Temperature 103 °F 96 °F 107 °F (1997)
Min Temperature 84 °F 75 °F 78 °F (1997)
Cooling Degree Days 28    
Growing Degree Days 44 (Base 50)    
Moisture  
Dew Point 74 °F    
Average Humidity 59    
Maximum Humidity 84    
Minimum Humidity 21    
Precipitation  
Precipitation 0.00 in 0.00 in - ()
Sea Level Pressure  
Sea Level Pressure 29.69 in    
Wind  
Wind Speed 5 mph ()    
Max Wind Speed 15 mph    
Max Gust Speed -    
Visibility 5.0 miles    
Events      
Averages and records for this station are not official NWS values.
T = Trace of Precipitation, MM = Missing Value Source: Averaged Metar Reports

Daily Weather History Graph

Daily Weather History Graph

Search for Another Location

Airport or City:

Trip Planner

Search our weather history database for the weather conditions in past years. The results will help you decide how hot, cold, wet, or windy it might be!

Date:

Astronomy

Sep. 23, 2011 Rise Set
Actual Time 5:22 AM AST 5:29 PM AST
Civil Twilight 4:59 AM AST 5:52 PM AST
Nautical Twilight 4:32 AM AST 6:19 PM AST
Astronomical Twilight 4:06 AM AST 6:45 PM AST
Moon 12:50 AM AST (9/23) 2:22 PM AST (9/23)
Length of Visible Light 12h 52m
Length of Day
12h 07m
Waning Crescent, 22% of the Moon is Illuminated
Sep 23
Waning Crescent
Sep 27
New
Oct 4
First Quarter
Oct 12
Full
Oct 20
Last Quarter

Hourly Weather History & Observations

Time (AST) Temp. Heat Index Dew Point Humidity Pressure Visibility Wind Dir Wind Speed Gust Speed Precip Events Conditions
12:00 AM 87.8 °F 104.9 °F 80.6 °F 79% 29.71 in 5.6 mi North 3.5 mph - N/A   Unknown
12:30 AM 87.8 °F 104.9 °F 80.6 °F 79% 29.68 in 5.6 mi Calm Calm - N/A   Unknown
1:00 AM 86.0 °F 101.9 °F 80.6 °F 84% 29.68 in 5.6 mi SE 3.5 mph - N/A   Unknown
1:30 AM 86.0 °F 99.3 °F 78.8 °F 79% 29.68 in 5.6 mi Variable 2.3 mph - N/A   Unknown
2:00 AM 86.0 °F 101.9 °F 80.6 °F 84% 29.68 in 5.0 mi Calm Calm - N/A   Unknown
2:30 AM 87.8 °F 104.9 °F 80.6 °F 79% 29.68 in 5.0 mi NE 3.5 mph - N/A   Haze
3:00 AM 87 °F - 81 °F 76% 29.70 in 4 mi North 6.9 mph - -   Haze
3:00 AM 87.8 °F 104.9 °F 80.6 °F 79% 29.68 in 4.3 mi North 6.9 mph - N/A   Unknown
3:30 AM 86.0 °F 101.9 °F 80.6 °F 84% 29.68 in 4.3 mi North 3.5 mph - N/A   Haze
4:00 AM 86.0 °F 101.9 °F 80.6 °F 84% 29.68 in 4.3 mi Variable 1.2 mph - N/A   Unknown
4:30 AM 86.0 °F 99.3 °F 78.8 °F 79% 29.68 in 4.3 mi SSW 4.6 mph - N/A   Haze
5:00 AM 86.0 °F 99.3 °F 78.8 °F 79% 29.71 in 4.3 mi Variable 2.3 mph - N/A   Unknown
5:30 AM 86.0 °F 96.9 °F 77.0 °F 74% 29.71 in 3.7 mi Variable 1.2 mph - N/A   Haze
6:00 AM 86.0 °F 96.9 °F 77.0 °F 74% 29.71 in 3.7 mi Variable 2.3 mph - N/A   Unknown
6:30 AM 86.0 °F 99.3 °F 78.8 °F 79% 29.71 in 3.7 mi Variable 1.2 mph - N/A   Unknown
7:00 AM 87.8 °F 99.7 °F 77.0 °F 70% 29.71 in 4.3 mi WSW 3.5 mph - N/A   Unknown
7:30 AM 89.6 °F 102.2 °F 77.0 °F 66% 29.74 in 4.3 mi Variable 1.2 mph - N/A   Unknown
8:00 AM 91.4 °F 102.5 °F 75.2 °F 59% 29.74 in 5.0 mi Variable 2.3 mph - N/A   Unknown
8:30 AM 93.2 °F 100.5 °F 71.6 °F 49% 29.74 in 5.6 mi SSW 3.5 mph - N/A   Unknown
9:00 AM 95 °F - 67 °F 30% 29.75 in 6 mi SSW 4.6 mph - -  
9:00 AM 95.0 °F 98.5 °F 66.2 °F 39% 29.74 in - SSW 4.6 mph - N/A   Clear
9:30 AM 98.6 °F 99.4 °F 60.8 °F 29% 29.74 in - South 3.5 mph - N/A   Clear
10:00 AM 100.4 °F 99.7 °F 57.2 °F 24% 29.74 in - South 3.5 mph - N/A   Clear
10:30 AM 102.2 °F 100.9 °F 55.4 °F 21% 29.74 in - SW 4.6 mph - N/A   Clear
11:00 AM 100.4 °F 106.3 °F 68.0 °F 35% 29.71 in - ESE 5.8 mph - N/A   Clear
11:30 AM 100.4 °F 107.8 °F 69.8 °F 37% 29.71 in - ESE 10.4 mph - N/A   Clear
12:00 PM 98.6 °F 109.2 °F 73.4 °F 44% 29.68 in - East 8.1 mph - N/A   Clear
12:30 PM 98.6 °F 107.7 °F 71.6 °F 42% 29.68 in - ESE 15.0 mph - N/A   Clear
1:00 PM 100.4 °F 104.9 °F 66.2 °F 33% 29.68 in - SE 12.7 mph - N/A   Clear
1:30 PM 100.4 °F 104.9 °F 66.2 °F 33% 29.68 in - SE 13.8 mph - N/A   Clear
2:00 PM 100.4 °F 103.6 °F 64.4 °F 31% 29.65 in - SE 13.8 mph - N/A   Clear
2:30 PM 100.4 °F 100.2 °F 59.0 °F 25% 29.65 in - SE 12.7 mph - N/A   Clear
3:00 PM 99 °F - 70 °F 29% 29.66 in 9 mi ESE 11.5 mph - -  
3:00 PM 98.6 °F 105.5 °F 69.8 °F 39% 29.65 in - ESE 11.5 mph - N/A   Clear
3:30 PM 100.4 °F 104.9 °F 66.2 °F 33% 29.65 in - ESE 11.5 mph - N/A   Clear
4:00 PM 98.6 °F 104.1 °F 68.0 °F 37% 29.65 in - ESE 10.4 mph - N/A   Clear
4:30 PM 96.8 °F 109.6 °F 75.2 °F 50% 29.65 in - East 6.9 mph - N/A   Clear
5:00 PM 95.0 °F 104.5 °F 73.4 °F 49% 29.65 in - ESE 6.9 mph - N/A   Clear
5:30 PM 93.2 °F 107.2 °F 77.0 °F 59% 29.65 in - East 3.5 mph - N/A   Clear
6:00 PM 93.2 °F 107.2 °F 77.0 °F 59% 29.65 in - East 3.5 mph - N/A   Clear
6:30 PM 91.4 °F 105.1 °F 77.0 °F 63% 29.68 in - NNE 6.9 mph - N/A   Clear
7:00 PM 93.2 °F 105.0 °F 75.2 °F 56% 29.68 in - North 10.4 mph - N/A   Clear
8:00 PM 91.4 °F 105.1 °F 77.0 °F 63% 29.71 in - NNE 8.1 mph - N/A   Clear
8:30 PM 89.6 °F 102.2 °F 77.0 °F 66% 29.71 in - North 8.1 mph - N/A   Clear
9:00 PM 90 °F - 79 °F 64% 29.74 in 6 mi North 6.9 mph - -  
9:00 PM 89.6 °F 104.7 °F 78.8 °F 70% 29.71 in - North 6.9 mph - N/A   Clear
9:30 PM 89.6 °F 104.7 °F 78.8 °F 70% 29.71 in - NNE 5.8 mph - N/A   Clear
10:00 PM 89.6 °F 108.2 °F 80.6 °F 75% 29.71 in 5.6 mi NNE 4.6 mph - N/A   Unknown
10:30 PM 89.6 °F 108.2 °F 80.6 °F 75% 29.71 in 5.6 mi North 6.9 mph - N/A   Unknown
11:00 PM 87.8 °F 108.2 °F 82.4 °F 84% 29.71 in 5.0 mi North 5.8 mph - N/A   Unknown
11:30 PM 87.8 °F 108.2 °F 82.4 °F 84% 29.71 in 5.0 mi North 4.6 mph - N/A   Unknown